Location: Archemont
(49.1579°N, 1.7598°E)
Time: 10:52:19
(UTC+00:00)

IRIDIUM 114 - Pass Details

Date: 03 February 2023
Orbit: 776 x 779 km, 86.4° (Epoch: 29 March)

Event Time Altitude Azimuth Distance (km) Brightness Sun altitude
Rises 18:42:25 0° 355° (N) 3,274 7.6 -18.1°
Reaches altitude 10° 18:44:46 10° 356° (N) 2,342 6.8 -18.5°
Maximum altitude 18:50:02 90° 331° (NNW) 785 4.3 -19.4°
Drops below altitude 10° 18:55:15 10° 178° (S) 2,323 6.8 -20.2°
Sets 18:57:35 0° 178° (S) 3,246 7.6 -20.6°
